星链-3614 (STARLINK-3614 )

导读 | 豆包AI

STARLINK-3614是美国太空探索技术公司SpaceX星链星座的成员,2022年2月25日发射升空,作为星链计划低轨互联网星座的组网卫星,该卫星部署在近地轨道,主要承担全球宽带互联网接入服务的组网任务,为全球偏远地区、海洋船舶等提供高速网络连接,延续星链星座持续扩容的组网进程,目前仍在轨正常运行,服务全球覆盖网络的搭建。

基本信息
目录编号:
51771
目录名称:
STARLINK-3614
国际标识:
2022-017D
轨道中心:
EARTH
卫星名称:
星链-3614
卫星全名:
星链-3614 (STARLINK-3614 )
卫星状态:
在轨 (已飞行1525 天)
发射日期:
2022-02-25 UTC
国别 :
美国 (US)
星等 :
--
轨道信息
数据来源 国际轨道数据 AOE轨道数据
星历时间 2026-04-30T16:14:20+0800
15小时前
查看轨道信息
2026-04-27T01:00:00+0800
4天前
查看轨道信息
半长轴 6917.829km 6917.761km
偏心率 0.0001447 0.000146
轨道倾角 53.217° 53.214°
近地点辐角 77.179° 85.377°
升交点赤经 107.226° 123.544°
平近点角 282.937° 319.486°
近地点 538.69km 538.614km
远地点 540.694km 540.634km
周期 95.436分钟 95.435分钟
每日圈数 15.088569 15.088793
详细信息
固有亮度:
5
最大亮度:
2.5
卫星平台:
Starlink v1.5
覆盖范围:
全球
运营商:
太空探索技术公司
运营商所在国:
美国
制造商(研发单位):
太空探索技术公司
制造商所在国:
美国
使用方式:
暂无
卫星简介
星链(Starlink)计划是由太空探索技术公司(SpaceX)提出的一个巨型低轨卫星互联网星座项目,计划在2019年至2024年间在太空搭建由约1.2万颗卫星组成的“星链”网络,其中1584颗将部署在地球上空550千米处的近地轨道,并从2020年开始工作。该卫星仍在工作。
2D轨道图
3D轨道图
轨道高度分析图
轨道倾角分析图
轨道综合分析图
查看轨道综合分析图